Youngstown, OH

2:50 AM EST on December 14, 2019 (GMT -0500)
Youngstown-Warren Regional

Weather History for KYNG - September, 2019

Change the Weather History Date:

Monday, September 23, 2019

  Actual Average Record
Temperature  
Mean Temperature 66 °F 59 °F  
Max Temperature 75 °F 69 °F 89 °F (2017)
Min Temperature 57 °F 49 °F 32 °F (1995)
Degree Days  
Heating Degree Days 0 7  
Month to date heating degree days 13 89  
Since 1 July heating degree days 19 127  
Cooling Degree Days 2 1  
Month to date cooling degree days 85 45  
Year to date cooling degree days 749 531  
Growing Degree Days 16 (Base 50)    
Moisture  
Dew Point 59 °F    
Average Humidity 70    
Maximum Humidity 84    
Minimum Humidity 53    
Precipitation  
Precipitation 0.21 in 0.12 in 1.56 in (2000)
Month to date precipitation 4.51 2.92  
Year to date precipitation 39.03 29.14  
Snow  
Snow 0.00 in 0.00 in - ()
Month to date snowfall 0.0 0.0  
Since 1 July snowfall 0.0 0.0  
Since 1 September snowfall 0.0 0.0  
Snow Depth 0.00 in    
Sea Level Pressure  
Sea Level Pressure 29.88 in    
Wind  
Wind Speed 9 mph ()    
Max Wind Speed 20 mph    
Max Gust Speed 28 mph    
Visibility 9.4 miles    
Events Rain    
T = Trace of Precipitation, MM = Missing Value Source: Averaged Metar Reports

Daily Weather History Graph

Daily Weather History Graph

Search for Another Location

Airport or City:

Astronomy

Sep. 23, 2019 Rise Set
Actual Time 7:10 AM EDT 7:18 PM EDT
Civil Twilight 6:43 AM EDT 7:46 PM EDT
Nautical Twilight 6:11 AM EDT 8:18 PM EDT
Astronomical Twilight 5:38 AM EDT 8:51 PM EDT
Moon 12:48 AM EDT (9/23) 4:14 PM EDT (9/23)
Length of Visible Light 13h 02m
Length of Day
12h 07m
Waning Crescent, 33% of the Moon is Illuminated
Sep 23
Waning Crescent
Sep 28
New
Oct 5
First Quarter
Oct 13
Full
Oct 21
Last Quarter

Hourly Weather History & Observations

Time (EDT) Temp. Dew Point Humidity Pressure Visibility Wind Dir Wind Speed Gust Speed Precip Events Conditions
12:51 AM 71.1 °F 57.0 °F 61% 29.92 in 10.0 mi SSW 5.8 mph - N/A   Mostly Cloudy
1:51 AM 72.0 °F 57.0 °F 59% 29.90 in 10.0 mi SSW 10.4 mph - N/A   Partly Cloudy
2:51 AM 73.0 °F 55.9 °F 55% 29.89 in 10.0 mi SSW 9.2 mph - N/A   Mostly Cloudy
3:51 AM 73.9 °F 55.9 °F 53% 29.89 in 10.0 mi SW 13.8 mph 20.7 mph N/A   Overcast
4:51 AM 73.0 °F 55.9 °F 55% 29.87 in 10.0 mi SSW 9.2 mph - N/A   Overcast
5:51 AM 72.0 °F 57.0 °F 59% 29.88 in 10.0 mi WSW 19.6 mph 27.6 mph 0.00 in Rain Light Rain
6:51 AM 66.9 °F 60.1 °F 79% 29.88 in 10.0 mi SW 6.9 mph - 0.01 in Rain Light Rain
7:51 AM 66.9 °F 60.1 °F 79% 29.88 in 10.0 mi South 6.9 mph - 0.00 in   Overcast
8:51 AM 68.0 °F 60.1 °F 76% 29.88 in 10.0 mi SSW 9.2 mph - N/A   Overcast
9:15 AM 69.1 °F 60.1 °F 73% 29.90 in 10.0 mi SSW 10.4 mph - N/A   Overcast
9:51 AM 71.1 °F 62.1 °F 73% 29.88 in 10.0 mi SW 12.7 mph - N/A   Overcast
10:31 AM 69.1 °F 64.0 °F 84% 29.90 in 4.0 mi SW 12.7 mph 24.2 mph 0.02 in Rain Light Rain
10:51 AM 69.1 °F 64.0 °F 84% 29.88 in 8.0 mi SW 10.4 mph - 0.02 in Rain Light Rain
11:51 AM 70.0 °F 64.0 °F 81% 29.86 in 10.0 mi SW 11.5 mph - 0.00 in   Overcast
12:51 PM 71.1 °F 64.0 °F 78% 29.87 in 10.0 mi WSW 12.7 mph - N/A   Overcast
1:51 PM 73.0 °F 64.9 °F 76% 29.85 in 10.0 mi SW 10.4 mph - N/A   Overcast
2:35 PM 71.1 °F 64.0 °F 78% 29.88 in 0.8 mi NW 19.6 mph 24.2 mph 0.00 in Rain Rain
2:43 PM 69.1 °F 63.0 °F 81% 29.87 in 10.0 mi West 6.9 mph 24.2 mph 0.18 in Rain Light Rain
2:51 PM 71.1 °F 64.0 °F 78% 29.85 in 10.0 mi WNW 8.1 mph - 0.18 in   Mostly Cloudy
3:24 PM 73.0 °F 62.1 °F 68% 29.87 in 10.0 mi WNW 9.2 mph - N/A   Mostly Cloudy
3:51 PM 73.9 °F 60.1 °F 62% 29.85 in 10.0 mi WNW 8.1 mph 18.4 mph N/A   Scattered Clouds
4:51 PM 73.9 °F 55.9 °F 53% 29.85 in 10.0 mi WNW 11.5 mph - N/A   Scattered Clouds
5:51 PM 73.0 °F 55.9 °F 55% 29.86 in 10.0 mi WNW 11.5 mph - N/A   Scattered Clouds
6:51 PM 70.0 °F 57.9 °F 65% 29.88 in 10.0 mi WNW 12.7 mph 18.4 mph N/A   Scattered Clouds
7:51 PM 66.9 °F 55.9 °F 68% 29.90 in 10.0 mi West 9.2 mph - N/A   Scattered Clouds
8:51 PM 64.0 °F 54.0 °F 70% 29.91 in 10.0 mi West 5.8 mph - N/A   Partly Cloudy
9:51 PM 63.0 °F 53.1 °F 70% 29.93 in 10.0 mi West 8.1 mph - N/A   Partly Cloudy
10:51 PM 61.0 °F 52.0 °F 72% 29.94 in 10.0 mi West 4.6 mph - N/A   Partly Cloudy
11:51 PM 59.0 °F 52.0 °F 78% 29.94 in 10.0 mi West 4.6 mph - N/A   Partly Cloudy